FW6620 Weather Reports


time (UTC)temp
C
wind
direction
speed
KPH
gust
KPH
rain 1hr
cm
rain 24hr
cm
rain mn
cm
humidity
%
barometer
mb
20260906050106 30 97 0.0 11.3 0.00 0.00 0.00 70 1013.8
20260906045546 30 95 1.6 11.3 0.00 0.00 0.00 70 1013.7
20260906045046 30 0 0.0 6.4 0.00 0.00 0.00 70 1013.8
20260906044559 30 0 0.0 8.0 0.00 0.00 0.00 70 1013.7
20260906044049 30 0 0.0 8.0 0.00 0.00 0.00 69 1013.8
20260906043546 30 116 1.6 8.0 0.00 0.00 0.00 69 1013.8
20260906043101 30 96 0.0 6.4 0.00 0.00 0.00 69 1013.9
20260906042546 30 0 0.0 8.0 0.00 0.00 0.00 69 1013.8
20260906042046 30 90 0.0 8.0 0.00 0.00 0.00 68 1013.8
20260906041602 31 0 0.0 6.4 0.00 0.00 0.00 68 1013.8
20260906041046 31 92 0.0 4.8 0.00 0.00 0.00 68 1013.8
20260906040546 31 91 0.0 8.0 0.00 0.00 0.00 68 1013.7
20260906040104 31 91 0.0 8.0 0.00 0.00 0.00 67 1013.7
20260906035548 31 0 0.0 4.8 0.00 0.00 0.00 67 1013.6
20260906035046 31 95 1.6 4.8 0.00 0.00 0.00 67 1013.7
20260906034629 31 0 0.0 4.8 0.00 0.00 0.00 66 1013.8
20260906034045 31 93 0.0 8.0 0.00 0.00 0.00 66 1013.8
20260906033546 31 0 0.0 8.0 0.00 0.00 0.00 66 1013.8
20260906033058 31 0 0.0 8.0 0.00 0.00 0.00 65 1013.7
20260906032546 31 100 0.0 8.0 0.00 0.00 0.00 65 1013.6
20260906032046 31 0 1.6 8.0 0.00 0.00 0.00 64 1013.5
20260906031605 31 99 0.0 6.4 0.00 0.00 0.00 63 1013.4
20260906031046 31 0 1.6 4.8 0.00 0.00 0.00 63 1013.4
20260906030546 31 97 0.0 4.8 0.00 0.00 0.00 62 1013.2
20260906030059 32 97 0.0 4.8 0.00 0.00 0.00 61 1013.3
20260906025546 32 0 0.0 3.2 0.00 0.00 0.00 61 1013.2
20260906025047 32 0 0.0 4.8 0.00 0.00 0.00 60 1013.0
20260906024558 32 0 0.0 4.8 0.00 0.00 0.00 60 1012.7
20260906024048 32 0 0.0 8.0 0.00 0.00 0.00 60 1012.5
20260906023546 32 95 1.6 8.0 0.00 0.00 0.00 60 1012.3
20260906023101 32 118 1.6 8.0 0.00 0.00 0.00 60 1012.3
20260906022547 32 0 0.0 6.4 0.00 0.00 0.00 60 1012.2
20260906022047 32 0 0.0 3.2 0.00 0.00 0.00 59 1012.0
20260906021601 32 0 0.0 6.4 0.00 0.00 0.00 60 1011.9
20260906021051 32 0 0.0 6.4 0.00 0.00 0.00 59 1011.8
20260906020546 32 102 0.0 6.4 0.00 0.00 0.00 59 1011.6
20260906020105 32 0 0.0 6.4 0.00 0.00 0.00 58 1011.6
20260906015546 32 101 0.0 6.4 0.00 0.00 0.00 58 1011.6
20260906015046 32 0 0.0 3.2 0.00 0.00 0.00 58 1011.6
20260906014604 32 0 0.0 3.2 0.00 0.00 0.00 57 1011.6
20260906014045 32 0 0.0 3.2 0.00 0.00 0.00 57 1011.5
20260906013548 32 0 0.0 3.2 0.00 0.00 0.00 56 1011.5
20260906013107 33 0 0.0 3.2 0.00 0.00 0.00 56 1011.5
20260906012545 33 0 0.0 3.2 0.00 0.00 0.00 56 1011.5
20260906012047 33 104 0.0 3.2 0.00 0.00 0.00 56 1011.4
20260906011602 33 0 0.0 3.2 0.00 0.00 0.00 55 1011.4
20260906011045 33 0 0.0 6.4 0.00 0.00 0.00 55 1011.3
20260906010545 33 0 0.0 6.4 0.00 0.00 0.00 54 1011.4
20260906010100 33 0 1.6 6.4 0.00 0.00 0.00 53 1011.3
20260906005546 34 189 1.6 4.8 0.00 0.00 0.00 53 1011.2
20260906005046 34 0 1.6 9.7 0.00 0.00 0.00 52 1011.3
20260906004605 35 0 1.6 9.7 0.00 0.00 0.00 51 1011.1
20260906004046 35 115 1.6 6.4 0.00 0.00 0.00 50 1011.1
20260906003546 35 0 0.0 6.4 0.00 0.00 0.00 49 1011.0
20260906003101 35 105 1.6 6.4 0.00 0.00 0.00 48 1011.0
20260906002547 35 104 0.0 4.8 0.00 0.00 0.00 47 1010.9
20260906002050 35 115 0.0 4.8 0.00 0.00 0.00 46 1010.9
20260906001559 35 0 0.0 4.8 0.00 0.00 0.00 47 1010.8
20260906001049 35 112 0.0 3.2 0.00 0.00 0.00 47 1010.9
20260906000546 35 0 0.0 3.2 0.00 0.00 0.00 46 1010.8
20260906000106 36 0 0.0 3.2 0.00 0.00 0.00 46 1010.8
20260905235546 36 0 0.0 3.2 0.00 0.00 0.00 46 1010.9
20260905235045 36 0 0.0 4.8 0.00 0.00 0.00 46 1010.8
20260905234610 36 0 0.0 4.8 0.00 0.00 0.00 45 1010.7
20260905234046 36 0 0.0 4.8 0.00 0.00 0.00 45 1010.8
20260905233546 36 0 0.0 3.2 0.00 0.00 0.00 45 1010.7
20260905233101 36 92 0.0 1.6 0.00 0.00 0.00 45 1010.7
20260905232545 36 92 0.0 4.8 0.00 0.00 0.00 44 1010.6
20260905232047 36 0 1.6 4.8 0.00 0.00 0.00 44 1010.7
20260905231604 36 91 0.0 3.2 0.00 0.00 0.00 44 1010.7
20260905231046 36 0 0.0 3.2 0.00 0.00 0.00 45 1010.7
20260905230546 36 0 0.0 6.4 0.00 0.00 0.00 45 1010.7
20260905230109 36 0 0.0 6.4 0.00 0.00 0.00 45 1010.7
20260905225547 36 90 0.0 6.4 0.00 0.00 0.00 44 1010.7
20260905225046 36 0 0.0 6.4 0.00 0.00 0.00 44 1010.8
20260905224612 36 0 0.0 3.2 0.00 0.00 0.00 44 1010.7
20260905224046 36 90 0.0 3.2 0.00 0.00 0.00 43 1010.7
20260905223545 36 0 0.0 3.2 0.00 0.00 0.00 43 1010.7
20260905223057 37 0 0.0 3.2 0.00 0.00 0.00 42 1010.7
20260905222549 36 89 0.0 6.4 0.00 0.00 0.00 43 1010.7
20260905222046 37 89 0.0 6.4 0.00 0.00 0.00 42 1010.7
20260905221556 37 0 0.0 4.8 0.00 0.00 0.00 43 1010.8
20260905221048 36 0 0.0 4.8 0.00 0.00 0.00 41 1010.9
20260905220546 36 91 0.0 4.8 0.00 0.00 0.00 41 1010.9
20260905220118 37 0 0.0 4.8 0.00 0.00 0.00 42 1011.1
20260905215546 37 68 0.0 3.2 0.00 0.00 0.00 41 1011.0
20260905215045 37 0 0.0 3.2 0.00 0.00 0.00 41 1011.0
20260905214558 37 0 0.0 4.8 0.00 0.00 0.00 42 1011.0
20260905214045 37 0 0.0 6.4 0.00 0.00 0.00 41 1011.1
20260905213545 37 68 1.6 6.4 0.00 0.00 0.00 41 1011.0
20260905213057 37 0 1.6 4.8 0.00 0.00 0.00 42 1011.0
20260905212545 37 65 0.0 4.8 0.00 0.00 0.00 41 1011.0
20260905212049 37 0 1.6 4.8 0.00 0.00 0.00 41 1011.1
20260905211554 37 0 0.0 6.4 0.00 0.00 0.00 41 1011.2
20260905211045 37 0 0.0 6.4 0.00 0.00 0.00 44 1011.3
20260905210545 37 65 0.0 4.8 0.00 0.00 0.00 43 1011.3
20260905210108 37 61 1.6 4.8 0.00 0.00 0.00 43 1011.3
20260905205551 37 61 0.0 4.8 0.00 0.00 0.00 44 1011.3
20260905205046 37 0 0.0 3.2 0.00 0.00 0.00 44 1011.6
20260905204557 36 62 1.6 4.8 0.00 0.00 0.00 44 1011.7
20260905204045 36 0 0.0 4.8 0.00 0.00 0.00 45 1011.7
20260905203549 36 62 0.0 6.4 0.00 0.00 0.00 45 1011.8
20260905203108 36 62 0.0 6.4 0.00 0.00 0.00 45 1011.9
20260905202545 36 60 0.0 4.8 0.00 0.00 0.00 45 1012.0
20260905202049 36 60 0.0 4.8 0.00 0.00 0.00 45 1012.2
20260905201554 36 0 0.0 3.2 0.00 0.00 0.00 44 1012.2
20260905201045 36 0 0.0 4.8 0.00 0.00 0.00 45 1012.3
20260905200546 36 60 0.0 6.4 0.00 0.00 0.00 44 1012.4
20260905200105 36 0 0.0 9.7 0.00 0.00 0.00 46 1012.5
20260905195548 36 0 1.6 9.7 0.00 0.00 0.00 46 1012.6
20260905195047 36 58 1.6 9.7 0.00 0.00 0.00 46 1012.7
20260905194557 36 68 0.0 6.4 0.00 0.00 0.00 48 1012.5
20260905194048 36 0 0.0 6.4 0.00 0.00 0.00 47 1012.6
20260905193551 36 64 0.0 6.4 0.00 0.00 0.00 47 1012.7
20260905193054 36 64 1.6 6.4 0.00 0.00 0.00 46 1012.9
20260905192551 36 0 0.0 4.8 0.00 0.00 0.00 48 1013.0
20260905192049 36 0 0.0 9.7 0.00 0.00 0.00 47 1013.0
20260905191609 36 0 1.6 9.7 0.00 0.00 0.00 47 1013.1
20260905191048 36 62 1.6 9.7 0.00 0.00 0.00 47 1013.2
20260905190547 35 0 0.0 6.4 0.00 0.00 0.00 48 1013.2
20260905185547 35 72 1.6 6.4 0.00 0.00 0.00 50 1013.5
20260905185047 35 0 0.0 4.8 0.00 0.00 0.00 48 1013.5
20260905184602 35 70 0.0 6.4 0.00 0.00 0.00 52 1013.7
20260905184047 35 0 0.0 6.4 0.00 0.00 0.00 50 1013.8
20260905183549 35 72 1.6 6.4 0.00 0.00 0.00 50 1013.8
20260905183057 34 61 0.0 6.4 0.00 0.00 0.00 56 1013.8
20260905182548 34 0 0.0 9.7 0.00 0.00 0.00 53 1014.0
20260905182047 34 61 1.6 9.7 0.00 0.00 0.00 54 1014.1
20260905181606 34 59 0.0 9.7 0.00 0.00 0.00 54 1014.2
20260905181048 34 0 1.6 9.7 0.00 0.00 0.00 55 1014.3
20260905180548 34 0 0.0 4.8 0.00 0.00 0.00 55 1014.3
20260905180059 34 0 0.0 9.7 0.00 0.00 0.00 56 1014.5
20260905175549 33 58 0.0 9.7 0.00 0.00 0.00 56 1014.6
20260905175048 33 67 1.6 9.7 0.00 0.00 0.00 57 1014.7
20260905174601 33 0 0.0 9.7 0.00 0.00 0.00 57 1014.7
20260905174047 33 62 1.6 6.4 0.00 0.00 0.00 57 1014.9
20260905173548 33 0 0.0 11.3 0.00 0.00 0.00 58 1015.0
20260905173055 33 66 0.0 11.3 0.00 0.00 0.00 63 1015.0
20260905172548 33 0 1.6 11.3 0.00 0.00 0.00 60 1015.1
20260905172048 33 0 1.6 9.7 0.00 0.00 0.00 62 1015.2
20260905171615 33 62 1.6 9.7 0.00 0.00 0.00 61 1015.3
20260905171048 32 56 0.0 6.4 0.00 0.00 0.00 63 1015.3
20260905170547 32 66 0.0 9.7 0.00 0.00 0.00 63 1015.4
20260905170106 32 55 3.2 9.7 0.00 0.00 0.00 63 1015.3
20260905165547 32 56 1.6 6.4 0.00 0.00 0.00 63 1015.4
20260905165045 32 61 0.0 4.8 0.00 0.00 0.00 66 1015.4
20260905164602 32 0 0.0 6.4 0.00 0.00 0.00 65 1015.5
20260905164045 31 0 1.6 9.7 0.00 0.00 0.00 67 1015.4
20260905163545 31 61 1.6 9.7 0.00 0.00 0.00 67 1015.5
20260905163102 31 0 1.6 6.4 0.00 0.00 0.00 68 1015.6
20260905162546 31 55 0.0 3.2 0.00 0.00 0.00 70 1015.5
20260905162046 30 55 0.0 11.3 0.00 0.00 0.00 70 1015.5
20260905161604 30 0 1.6 11.3 0.00 0.00 0.00 70 1015.5
20260905161046 30 62 0.0 9.7 0.00 0.00 0.00 71 1015.6
20260905160544 30 74 0.0 9.7 0.00 0.00 0.00 72 1015.6
20260905160108 30 0 0.0 11.3 0.00 0.00 0.00 72 1015.5
20260905155545 30 0 0.0 11.3 0.00 0.00 0.00 75 1015.4
20260905155045 30 59 4.8 11.3 0.00 0.00 0.00 74 1015.5
20260905154632 30 0 0.0 9.7 0.00 0.00 0.00 75 1015.5
20260905154046 30 68 3.2 9.7 0.00 0.00 0.00 75 1015.5
20260905153549 29 65 1.6 9.7 0.00 0.00 0.00 76 1015.4
20260905153055 29 0 0.0 6.4 0.00 0.00 0.00 77 1015.5
20260905152546 29 0 0.0 6.4 0.00 0.00 0.00 78 1015.5
20260905152045 28 0 1.6 9.7 0.00 0.00 0.00 79 1015.5
20260905151601 28 0 0.0 9.7 0.00 0.00 0.00 80 1015.6
20260905151044 28 59 0.0 6.4 0.00 0.00 0.00 82 1015.5
20260905150544 28 56 1.6 6.4 0.00 0.00 0.00 82 1015.7
20260905150106 28 0 0.0 4.8 0.00 0.00 0.00 83 1015.7
20260905145546 28 62 0.0 4.8 0.00 0.00 0.00 83 1015.5
20260905145045 28 62 0.0 3.2 0.00 0.00 0.00 84 1015.4
20260905144556 27 0 0.0 3.2 0.00 0.00 0.00 86 1015.4
20260905144045 27 0 0.0 4.8 0.00 0.00 0.00 87 1015.4
20260905143545 27 0 0.0 4.8 0.00 0.00 0.00 88 1015.4
20260905143104 27 62 0.0 3.2 0.00 0.00 0.00 89 1015.4
20260905142545 27 0 0.0 3.2 0.00 0.00 0.00 90 1015.4
20260905142045 26 0 0.0 3.2 0.00 0.00 0.00 90 1015.4
20260905141600 26 0 0.0 3.2 0.00 0.00 0.00 91 1015.4
20260905141045 26 0 0.0 3.2 0.00 0.00 0.00 91 1015.3
20260905140545 26 0 0.0 1.6 0.00 0.00 0.00 91 1015.3
20260905140057 26 0 0.0 1.6 0.00 0.00 0.00 91 1015.3
20260905135545 26 0 0.0 1.6 0.00 0.00 0.00 92 1015.3
20260905135046 26 0 0.0 3.2 0.00 0.00 0.00 92 1015.3
20260905134603 26 0 0.0 3.2 0.00 0.00 0.00 92 1015.1
20260905134047 26 63 0.0 3.2 0.00 0.00 0.00 92 1015.1
20260905133549 26 0 0.0 3.2 0.00 0.00 0.00 92 1015.1
20260905133102 26 0 0.0 4.8 0.00 0.00 0.00 93 1015.1
20260905132549 26 0 0.0 4.8 0.00 0.00 0.00 93 1015.1
20260905132048 25 0 0.0 0.0 0.00 0.00 0.00 93 1015.0
20260905131602 25 0 0.0 0.0 0.00 0.00 0.00 93 1015.0
20260905131048 25 0 0.0 0.0 0.00 0.00 0.00 92 1014.9
20260905130553 25 0 0.0 0.0 0.00 0.00 0.00 91 1014.9
20260905130059 25 0 0.0 0.0 0.00 0.00 0.00 91 1014.9
20260905125549 25 0 0.0 0.0 0.00 0.00 0.00 91 1014.7
20260905125047 25 0 0.0 0.0 0.00 0.00 0.00 91 1014.6
20260905124558 25 0 0.0 0.0 0.00 0.00 0.00 91 1014.5
20260905124049 25 0 0.0 0.0 0.00 0.00 0.00 91 1014.5
20260905123547 25 0 0.0 0.0 0.00 0.00 0.00 92 1014.5
20260905123105 25 0 0.0 0.0 0.00 0.00 0.00 92 1014.3
20260905122548 25 0 0.0 0.0 0.00 0.00 0.00 92 1014.4
20260905122047 25 0 0.0 0.0 0.00 0.00 0.00 91 1014.3
20260905121559 25 0 0.0 0.0 0.00 0.00 0.00 91 1014.5
20260905121048 25 0 0.0 0.0 0.00 0.00 0.00 91 1014.5
20260905120548 25 0 0.0 0.0 0.00 0.00 0.00 91 1014.3
20260905120057 25 0 0.0 0.0 0.00 0.00 0.00 91 1014.4
20260905115547 25 0 0.0 0.0 0.00 0.00 0.00 91 1014.2
20260905115047 24 0 0.0 0.0 0.00 0.00 0.00 91 1014.2
20260905114606 25 0 0.0 0.0 0.00 0.00 0.00 92 1014.2
20260905114047 24 0 0.0 0.0 0.00 0.00 0.00 92 1014.1
20260905113548 24 0 0.0 0.0 0.00 0.00 0.00 92 1014.2
20260905113101 24 0 0.0 0.0 0.00 0.00 0.00 91 1014.2
20260905112548 25 0 0.0 0.0 0.00 0.00 0.00 91 1014.2
20260905112046 25 0 0.0 0.0 0.00 0.00 0.00 91 1014.1
20260905111627 25 0 0.0 0.0 0.00 0.00 0.00 91 1014.0
20260905111048 25 0 0.0 0.0 0.00 0.00 0.00 91 1014.0
20260905110547 25 0 0.0 0.0 0.00 0.00 0.00 91 1013.9
20260905110106 25 0 0.0 0.0 0.00 0.00 0.00 91 1014.0
20260905105547 25 0 0.0 0.0 0.00 0.00 0.00 91 1014.0
20260905105048 25 0 0.0 0.0 0.00 0.00 0.00 91 1014.0
20260905104619 25 0 0.0 0.0 0.00 0.00 0.00 90 1013.9
20260905104047 25 0 0.0 0.0 0.00 0.00 0.00 90 1013.9
20260905103547 25 0 0.0 0.0 0.00 0.00 0.00 90 1013.9
20260905103052 25 0 0.0 0.0 0.00 0.00 0.00 90 1013.9
20260905102546 25 0 0.0 0.0 0.00 0.00 0.00 90 1013.9
20260905102047 25 0 0.0 0.0 0.00 0.00 0.00 90 1014.0
20260905101559 25 0 0.0 0.0 0.00 0.00 0.00 90 1013.9
20260905101046 25 0 0.0 0.0 0.00 0.00 0.00 90 1013.9
20260905100547 25 0 0.0 0.0 0.00 0.00 0.00 90 1013.7
20260905100059 25 0 0.0 0.0 0.00 0.00 0.00 90 1013.8
20260905095547 25 0 0.0 0.0 0.00 0.00 0.00 89 1013.7
20260905095047 25 0 0.0 0.0 0.00 0.00 0.00 89 1013.8
20260905094716 25 0 0.0 0.0 0.00 0.00 0.00 89 1013.8
20260905094047 25 0 0.0 0.0 0.00 0.00 0.00 89 1013.7
20260905093547 26 0 0.0 0.0 0.00 0.00 0.00 88 1013.7
20260905093126 26 0 0.0 0.0 0.00 0.00 0.00 88 1013.7
20260905092546 26 0 0.0 0.0 0.00 0.00 0.00 87 1013.7
20260905092046 26 0 0.0 0.0 0.00 0.00 0.00 88 1013.7
20260905091603 26 0 0.0 0.0 0.00 0.00 0.00 88 1013.7
20260905091046 26 0 0.0 0.0 0.00 0.00 0.00 88 1013.8
20260905090546 26 0 0.0 0.0 0.00 0.00 0.00 87 1013.9
20260905090056 26 0 0.0 0.0 0.00 0.00 0.00 87 1013.9
20260905085547 26 0 0.0 0.0 0.00 0.00 0.00 87 1013.9
20260905085047 26 0 0.0 0.0 0.00 0.00 0.00 86 1013.9
20260905084606 26 0 0.0 0.0 0.00 0.00 0.00 87 1013.9
20260905084050 26 0 0.0 3.2 0.00 0.00 0.00 87 1013.9
20260905083547 26 0 0.0 3.2 0.00 0.00 0.00 87 1013.9
20260905083102 26 63 0.0 0.0 0.00 0.00 0.00 86 1013.9
20260905082547 26 0 0.0 1.6 0.00 0.00 0.00 86 1013.9
20260905082047 26 0 0.0 1.6 0.00 0.00 0.00 86 1014.0
20260905081557 26 0 0.0 1.6 0.00 0.00 0.00 85 1014.0
20260905081046 26 0 0.0 1.6 0.00 0.00 0.00 86 1014.0
20260905080547 26 0 0.0 0.0 0.00 0.00 0.00 86 1014.1
20260905080108 26 0 0.0 0.0 0.00 0.00 0.00 85 1014.1
20260905075548 27 0 0.0 3.2 0.00 0.00 0.00 85 1014.0
20260905075047 27 0 0.0 3.2 0.00 0.00 0.00 85 1014.0
20260905074606 27 0 0.0 4.8 0.00 0.00 0.00 85 1014.1
20260905074047 27 0 1.6 4.8 0.00 0.00 0.00 85 1014.2
20260905073548 27 0 0.0 1.6 0.00 0.00 0.00 84 1014.1
20260905073110 27 0 0.0 3.2 0.00 0.00 0.00 84 1014.1
20260905072546 27 0 0.0 9.7 0.00 0.00 0.00 84 1014.2
20260905072043 27 62 0.0 9.7 0.00 0.00 0.00 84 1014.3
20260905071558 27 60 0.0 3.2 0.00 0.00 0.00 84 1014.4
20260905071047 27 0 0.0 3.2 0.00 0.00 0.00 83 1014.5
20260905070546 27 0 0.0 3.2 0.00 0.00 0.00 83 1014.4
20260905070058 27 0 0.0 3.2 0.00 0.00 0.00 83 1014.5
20260905065549 27 0 0.0 9.7 0.00 0.00 0.00 83 1014.3
20260905065047 27 0 0.0 9.7 0.00 0.00 0.00 82 1014.3
20260905064559 27 0 0.0 6.4 0.00 0.00 0.00 82 1014.3
20260905064046 27 0 0.0 3.2 0.00 0.00 0.00 82 1014.3
20260905063547 27 0 0.0 3.2 0.00 0.00 0.00 82 1014.4
20260905063103 27 0 0.0 4.8 0.00 0.00 0.00 81 1014.5
20260905062546 27 0 0.0 4.8 0.00 0.00 0.00 81 1014.4
20260905062046 27 0 0.0 4.8 0.00 0.00 0.00 81 1014.5
20260905061604 27 0 0.0 9.7 0.00 0.00 0.00 81 1014.5
20260905061047 27 65 0.0 9.7 0.00 0.00 0.00 80 1014.5
20260905060547 27 0 0.0 6.4 0.00 0.00 0.00 80 1014.5
20260905060107 27 61 0.0 4.8 0.00 0.00 0.00 80 1014.4
20260905055548 27 0 0.0 9.7 0.00 0.00 0.00 79 1014.5
20260905055046 28 0 0.0 9.7 0.00 0.00 0.00 79 1014.4
20260905054604 28 65 0.0 4.8 0.00 0.00 0.00 79 1014.4
20260905054048 28 0 0.0 4.8 0.00 0.00 0.00 79 1014.5
20260905053549 28 0 0.0 6.4 0.00 0.00 0.00 78 1014.5
20260905053058 28 0 0.0 6.4 0.00 0.00 0.00 78 1014.5
20260905052546 28 0 0.0 4.8 0.00 0.00 0.00 78 1014.5
20260905052047 28 0 0.0 4.8 0.00 0.00 0.00 77 1014.6
20260905051609 28 64 0.0 4.8 0.00 0.00 0.00 77 1014.5
20260905051049 28 0 0.0 4.8 0.00 0.00 0.00 77 1014.6
20260905050547 28 0 0.0 9.7 0.00 0.00 0.00 77 1014.5